NK0V Weather Reports


Display with metric or nautical units.
time (UTC)temp
F
wind
direction
speed
MPH
gust
MPH
rain 1hr
in
rain 24hr
in
rain mn
in
humidity
%
barometer
mb
20260904155556 86 5 1.0 5.0 0.00 0.00 0.00 56 1013.5
20260904155056 85 0 1.0 5.0 0.00 0.00 0.00 56 1013.4
20260904154601 85 35 0.0 8.0 0.00 0.00 0.00 56 1013.4
20260904154058 85 312 2.0 8.0 0.00 0.00 0.00 57 1013.4
20260904153555 84 0 0.0 4.0 0.00 0.00 0.00 62 1013.4
20260904153112 83 0 0.0 5.0 0.00 0.00 0.00 63 1013.3
20260904152556 83 0 0.0 5.0 0.00 0.00 0.00 62 1013.3
20260904152057 82 0 0.0 3.0 0.00 0.00 0.00 63 1013.2
20260904151605 82 27 1.0 8.0 0.00 0.00 0.00 63 1013.0
20260904151056 81 0 0.0 8.0 0.00 0.00 0.00 67 1013.1
20260904150556 80 0 1.0 8.0 0.00 0.00 0.00 70 1013.0
20260904145558 78 101 0.0 4.0 0.00 0.00 0.00 78 1013.0
20260904145057 77 31 0.0 4.0 0.00 0.00 0.00 80 1013.0
20260904144603 76 0 1.0 4.0 0.00 0.00 0.00 82 1012.9
20260904144058 75 0 0.0 3.0 0.00 0.00 0.00 83 1012.9
20260904143558 74 47 0.0 3.0 0.00 0.00 0.00 86 1013.0
20260904143103 74 73 0.0 3.0 0.00 0.00 0.00 87 1013.1
20260904142558 74 0 0.0 5.0 0.00 0.00 0.00 87 1013.0
20260904142101 73 0 1.0 5.0 0.00 0.00 0.00 88 1013.0
20260904141601 73 17 1.0 5.0 0.00 0.00 0.00 89 1012.9
20260904141059 73 0 2.0 5.0 0.00 0.00 0.00 89 1012.9
20260904140600 72 5 2.0 4.0 0.00 0.00 0.00 90 1012.9
20260904140103 72 18 1.0 3.0 0.00 0.00 0.00 91 1012.8
20260904135558 71 15 0.0 2.0 0.00 0.00 0.00 91 1012.7
20260904135100 71 30 0.0 2.0 0.00 0.00 0.00 91 1012.8
20260904134600 71 19 0.0 2.0 0.00 0.00 0.00 91 1012.7
20260904134055 70 34 0.0 2.0 0.00 0.00 0.00 91 1012.6
20260904133600 70 0 0.0 2.0 0.00 0.00 0.00 90 1012.7
20260904133104 70 0 0.0 2.0 0.00 0.00 0.00 90 1012.5
20260904132556 69 23 0.0 3.0 0.00 0.00 0.00 90 1012.5
20260904132059 69 0 0.0 3.0 0.00 0.00 0.00 90 1012.5
20260904131609 69 0 0.0 4.0 0.00 0.00 0.00 90 1012.5
20260904131103 69 27 2.0 4.0 0.00 0.00 0.00 90 1012.5
20260904130556 68 14 1.0 4.0 0.00 0.00 0.00 90 1012.5
20260904130101 68 24 2.0 3.0 0.00 0.00 0.00 90 1012.4
20260904125558 68 0 0.0 0.0 0.00 0.00 0.00 90 1012.4
20260904125055 68 0 0.0 0.0 0.00 0.00 0.00 90 1012.4
20260904124602 68 0 0.0 2.0 0.00 0.00 0.00 89 1012.5
20260904124059 68 0 0.0 2.0 0.00 0.00 0.00 89 1012.4
20260904123558 68 0 0.0 2.0 0.00 0.00 0.00 89 1012.4
20260904123104 68 0 0.0 1.0 0.00 0.00 0.00 89 1012.3
20260904122557 68 0 0.0 1.0 0.00 0.00 0.00 89 1012.2
20260904122057 68 0 0.0 1.0 0.00 0.00 0.00 89 1012.1
20260904121556 68 0 0.0 1.0 0.00 0.00 0.00 89 1012.2
20260904121057 68 0 0.0 1.0 0.00 0.00 0.00 90 1012.2
20260904120557 69 0 0.0 3.0 0.00 0.00 0.00 90 1012.1
20260904115558 69 32 1.0 5.0 0.00 0.00 0.00 90 1011.8
20260904115055 69 55 2.0 5.0 0.00 0.00 0.00 90 1011.7
20260904114608 69 27 2.0 4.0 0.00 0.00 0.00 90 1011.6
20260904114055 69 17 1.0 6.0 0.00 0.00 0.00 90 1011.7
20260904113556 69 12 2.0 6.0 0.00 0.00 0.00 91 1011.7
20260904113100 69 25 3.0 6.0 0.00 0.00 0.00 91 1011.7
20260904112557 69 17 1.0 7.0 0.00 0.00 0.00 91 1011.6
20260904112056 69 24 2.0 7.0 0.00 0.00 0.00 91 1011.6
20260904111559 69 34 3.0 6.0 0.00 0.00 0.00 91 1011.6
20260904111058 69 31 3.0 7.0 0.00 0.00 0.00 91 1011.6
20260904110557 69 41 2.0 7.0 0.00 0.00 0.00 91 1011.5
20260904105558 70 360 2.0 7.0 0.00 0.00 0.00 92 1011.4
20260904105058 69 29 1.0 7.0 0.00 0.00 0.00 92 1011.3
20260904104604 69 45 1.0 4.0 0.00 0.00 0.00 91 1011.3
20260904104056 69 22 0.0 4.0 0.00 0.00 0.00 91 1011.2
20260904103556 69 22 2.0 4.0 0.00 0.00 0.00 91 1011.2
20260904103100 69 35 0.0 3.0 0.00 0.00 0.00 91 1011.1
20260904102556 69 0 0.0 3.0 0.00 0.00 0.00 91 1011.1
20260904102058 69 34 1.0 3.0 0.00 0.00 0.00 91 1011.2
20260904101611 69 34 1.0 3.0 0.00 0.00 0.00 90 1011.1
20260904101058 69 0 0.0 2.0 0.00 0.00 0.00 90 1011.3
20260904100557 69 0 0.0 1.0 0.00 0.00 0.00 91 1011.1
20260904100111 69 92 0.0 2.0 0.00 0.00 0.00 90 1011.0
20260904095558 69 0 0.0 2.0 0.00 0.00 0.00 90 1011.0
20260904095058 69 92 0.0 2.0 0.00 0.00 0.00 90 1011.0
20260904094610 69 0 0.0 2.0 0.00 0.00 0.00 90 1011.1
20260904094057 69 0 0.0 2.0 0.00 0.00 0.00 90 1011.0
20260904093558 69 0 0.0 2.0 0.00 0.00 0.00 89 1011.0
20260904093117 69 92 0.0 2.0 0.00 0.00 0.00 89 1010.9
20260904092557 69 92 0.0 2.0 0.00 0.00 0.00 89 1010.9
20260904092057 69 0 0.0 3.0 0.00 0.00 0.00 89 1010.9
20260904091616 69 0 1.0 3.0 0.00 0.00 0.00 89 1010.9
20260904091058 69 0 0.0 3.0 0.00 0.00 0.00 89 1010.9
20260904090557 69 89 1.0 3.0 0.00 0.00 0.00 88 1010.9
20260904090101 69 90 0.0 2.0 0.00 0.00 0.00 89 1010.8
20260904085558 69 71 1.0 3.0 0.00 0.00 0.00 88 1010.8
20260904085058 69 0 1.0 3.0 0.00 0.00 0.00 88 1010.7
20260904084600 70 105 1.0 3.0 0.00 0.00 0.00 88 1010.7
20260904084056 70 96 0.0 3.0 0.00 0.00 0.00 88 1010.6
20260904083557 70 101 0.0 3.0 0.00 0.00 0.00 88 1010.6
20260904083106 70 128 1.0 3.0 0.00 0.00 0.00 89 1010.5
20260904082601 70 0 0.0 1.0 0.00 0.00 0.00 88 1010.5
20260904082058 70 0 0.0 1.0 0.00 0.00 0.00 88 1010.4
20260904081610 70 0 0.0 2.0 0.00 0.00 0.00 88 1010.5
20260904081057 70 0 0.0 2.0 0.00 0.00 0.00 88 1010.4
20260904080601 70 0 0.0 2.0 0.00 0.00 0.00 88 1010.4
20260904075557 70 0 0.0 2.0 0.00 0.00 0.00 87 1010.6
20260904075057 70 92 0.0 2.0 0.00 0.00 0.00 88 1010.5
20260904074600 70 92 0.0 2.0 0.00 0.00 0.00 88 1010.6
20260904074059 70 92 0.0 2.0 0.00 0.00 0.00 88 1010.7
20260904073557 70 92 1.0 2.0 0.00 0.00 0.00 88 1010.6
20260904073121 70 88 0.0 1.0 0.00 0.00 0.00 87 1010.6
20260904072558 70 0 0.0 0.0 0.00 0.00 0.00 87 1010.6
20260904072057 70 0 0.0 0.0 0.00 0.00 0.00 87 1010.6
20260904071556 71 0 0.0 0.0 0.00 0.00 0.00 87 1010.6
20260904071058 71 0 0.0 0.0 0.00 0.00 0.00 87 1010.6
20260904070600 71 0 0.0 0.0 0.00 0.00 0.00 87 1010.7
20260904065557 71 0 0.0 1.0 0.00 0.00 0.00 87 1010.8
20260904065058 71 0 0.0 1.0 0.00 0.00 0.00 86 1010.9
20260904064605 71 0 0.0 1.0 0.00 0.00 0.00 86 1010.9
20260904064100 71 0 0.0 1.0 0.00 0.00 0.00 86 1010.9
20260904063555 71 0 0.0 1.0 0.00 0.00 0.00 86 1011.1
20260904063109 71 0 0.0 1.0 0.00 0.00 0.00 86 1011.0
20260904062554 71 0 0.0 1.0 0.00 0.00 0.00 86 1011.0
20260904062058 71 0 0.0 1.0 0.00 0.00 0.00 86 1011.0
20260904061601 71 0 0.0 1.0 0.00 0.00 0.00 85 1011.0
20260904061058 71 0 0.0 1.0 0.00 0.00 0.00 85 1011.0
20260904060558 71 0 0.0 1.0 0.00 0.00 0.00 85 1010.9
20260904060129 71 0 0.0 2.0 0.00 0.00 0.00 85 1010.9
20260904055557 72 0 0.0 2.0 0.00 0.00 0.00 85 1010.8
20260904055057 72 88 0.0 1.0 0.00 0.00 0.00 85 1010.7
20260904054634 72 0 0.0 1.0 0.00 0.00 0.00 85 1010.7
20260904054057 72 0 0.0 1.0 0.00 0.00 0.00 85 1010.7
20260904053557 72 0 0.0 1.0 0.00 0.00 0.00 85 1010.5
20260904053057 72 0 0.0 1.0 0.00 0.00 0.00 85 1010.6
20260904052555 72 88 0.0 1.0 0.00 0.00 0.00 85 1010.4
20260904052058 72 0 0.0 1.0 0.00 0.00 0.00 84 1010.4
20260904051600 72 0 0.0 1.0 0.00 0.00 0.00 84 1010.5
20260904051058 72 0 0.0 1.0 0.00 0.00 0.00 84 1010.4
20260904050557 72 0 0.0 1.0 0.00 0.00 0.00 83 1010.4
20260904045558 72 0 0.0 3.0 0.00 0.00 0.00 83 1010.3
20260904045100 73 0 0.0 3.0 0.00 0.00 0.00 82 1010.2
20260904044603 73 134 0.0 2.0 0.00 0.00 0.00 82 1010.2
20260904044100 73 0 0.0 2.0 0.00 0.00 0.00 82 1010.2
20260904043600 73 134 0.0 1.0 0.00 0.00 0.00 81 1010.2
20260904043106 73 134 0.0 1.0 0.00 0.00 0.00 82 1010.2
20260904042559 73 0 0.0 1.0 0.00 0.00 0.00 82 1010.1
20260904042100 73 0 0.0 1.0 0.00 0.00 0.00 81 1010.2
20260904041609 74 0 0.0 0.0 0.00 0.00 0.00 81 1010.2
20260904041100 74 0 0.0 1.0 0.00 0.00 0.00 81 1010.3
20260904040600 74 0 0.0 1.0 0.00 0.00 0.00 81 1010.3
20260904040109 74 0 0.0 1.0 0.00 0.00 0.00 81 1010.3
20260904035600 74 0 0.0 1.0 0.00 0.00 0.00 80 1010.3
20260904035059 75 0 0.0 1.0 0.00 0.00 0.00 79 1010.2
20260904034601 75 0 0.0 1.0 0.00 0.00 0.00 79 1010.2
20260904034101 75 0 0.0 1.0 0.00 0.00 0.00 79 1010.2
20260904033602 75 0 0.0 1.0 0.00 0.00 0.00 78 1010.1
20260904033110 76 134 0.0 1.0 0.00 0.00 0.00 78 1010.1
20260904032602 76 0 0.0 3.0 0.00 0.00 0.00 77 1010.1
20260904032102 76 0 0.0 3.0 0.00 0.00 0.00 77 1010.1
20260904031608 77 131 0.0 3.0 0.00 0.00 0.00 76 1009.9
20260904031059 77 102 0.0 2.0 0.00 0.00 0.00 75 1009.8
20260904030559 77 122 0.0 2.0 0.00 0.00 0.00 75 1009.8
20260904030103 78 142 0.0 2.0 0.00 0.00 0.00 74 1009.7
20260904025600 78 0 0.0 1.0 0.00 0.00 0.00 74 1009.6
20260904025059 78 0 0.0 2.0 0.00 0.00 0.00 74 1009.7
20260904024607 78 0 0.0 2.0 0.00 0.00 0.00 74 1009.6
20260904024100 79 130 0.0 2.0 0.00 0.00 0.00 73 1009.6
20260904023601 79 155 0.0 3.0 0.00 0.00 0.00 73 1009.5
20260904023105 79 0 0.0 3.0 0.00 0.00 0.00 72 1009.5
20260904022559 79 109 0.0 5.0 0.00 0.00 0.00 72 1009.5
20260904022100 80 139 1.0 5.0 0.00 0.00 0.00 72 1009.5
20260904021605 80 134 1.0 5.0 0.00 0.00 0.00 71 1009.4
20260904021059 80 111 0.0 5.0 0.00 0.00 0.00 71 1009.4
20260904020559 80 194 2.0 7.0 0.00 0.00 0.00 71 1009.3
20260904020105 81 229 1.0 7.0 0.00 0.00 0.00 71 1009.2
20260904015559 81 153 1.0 5.0 0.00 0.00 0.00 71 1009.2
20260904015100 81 138 1.0 4.0 0.00 0.00 0.00 70 1009.1
20260904014619 82 137 1.0 4.0 0.00 0.00 0.00 70 1009.0
20260904014103 82 98 1.0 4.0 0.00 0.00 0.00 69 1009.0
20260904013601 82 144 0.0 4.0 0.00 0.00 0.00 69 1009.0
20260904013120 83 0 1.0 4.0 0.00 0.00 0.00 68 1008.9
20260904012557 83 115 1.0 4.0 0.00 0.00 0.00 68 1008.8
20260904012055 83 138 0.0 5.0 0.00 0.00 0.00 68 1008.8
20260904011604 84 136 1.0 6.0 0.00 0.00 0.00 67 1008.8
20260904011057 84 169 1.0 6.0 0.00 0.00 0.00 66 1008.7
20260904010554 85 106 1.0 4.0 0.00 0.00 0.00 66 1008.8
20260904010114 85 156 1.0 5.0 0.00 0.00 0.00 66 1008.7
20260904005556 85 157 1.0 5.0 0.00 0.00 0.00 66 1008.7
20260904005100 86 166 1.0 5.0 0.00 0.00 0.00 66 1008.6
20260904004620 86 178 0.0 4.0 0.00 0.00 0.00 65 1008.6
20260904004058 86 190 0.0 4.0 0.00 0.00 0.00 65 1008.5
20260904003557 86 143 1.0 4.0 0.00 0.00 0.00 65 1008.6
20260904003129 87 163 0.0 5.0 0.00 0.00 0.00 65 1008.6
20260904002555 87 0 0.0 5.0 0.00 0.00 0.00 65 1008.5
20260904002056 87 157 1.0 6.0 0.00 0.00 0.00 65 1008.6
20260904001605 87 100 1.0 6.0 0.00 0.00 0.00 64 1008.5
20260904001055 87 138 1.0 6.0 0.00 0.00 0.00 64 1008.5
20260904000554 87 134 2.0 7.0 0.00 0.00 0.00 64 1008.4
20260903235553 87 128 2.0 10.0 0.00 0.00 0.00 63 1008.5
20260903235056 87 207 2.0 10.0 0.00 0.00 0.00 62 1008.4
20260903234603 87 216 2.0 6.0 0.00 0.00 0.00 61 1008.5
20260903234058 87 238 2.0 6.0 0.00 0.00 0.00 61 1008.4
20260903233556 87 149 2.0 7.0 0.00 0.00 0.00 60 1008.5
20260903233103 87 228 2.0 7.0 0.00 0.00 0.00 59 1008.3
20260903232557 87 200 2.0 7.0 0.00 0.00 0.00 58 1008.3
20260903232054 88 194 2.0 8.0 0.00 0.00 0.00 58 1008.4
20260903231606 88 195 4.0 11.0 0.00 0.00 0.00 57 1008.4
20260903231057 88 205 4.0 12.0 0.00 0.00 0.00 56 1008.3
20260903230555 88 175 3.0 12.0 0.00 0.00 0.00 56 1008.2
20260903230111 88 197 5.0 13.0 0.00 0.00 0.00 55 1008.2
20260903225555 88 202 3.0 13.0 0.00 0.00 0.00 55 1008.2
20260903225054 88 211 5.0 13.0 0.00 0.00 0.00 54 1008.2
20260903224608 88 206 3.0 19.0 0.00 0.00 0.00 56 1008.2
20260903224054 88 103 3.0 19.0 0.00 0.00 0.00 55 1008.2
20260903223600 88 189 5.0 18.0 0.00 0.00 0.00 55 1008.1
20260903223126 88 236 4.0 17.0 0.00 0.00 0.00 55 1008.2
20260903222556 89 220 5.0 17.0 0.00 0.00 0.00 55 1008.0
20260903222054 89 228 6.0 17.0 0.00 0.00 0.00 55 1007.9
20260903221607 89 238 6.0 17.0 0.00 0.00 0.00 55 1007.8
20260903221058 89 238 3.0 20.0 0.00 0.00 0.00 56 1007.8
20260903220557 89 239 6.0 20.0 0.00 0.00 0.00 55 1007.6
20260903220105 89 246 6.0 20.0 0.00 0.00 0.00 55 1007.7
20260903215556 88 202 6.0 16.0 0.00 0.00 0.00 50 1007.7
20260903215056 88 224 5.0 16.0 0.00 0.00 0.00 52 1007.7
20260903214557 88 208 7.0 15.0 0.00 0.00 0.00 51 1007.6
20260903214057 88 247 5.0 15.0 0.00 0.00 0.00 52 1007.6
20260903213559 88 188 4.0 15.0 0.00 0.00 0.00 52 1007.6
20260903213103 89 146 4.0 12.0 0.00 0.00 0.00 54 1007.6
20260903212558 89 197 5.0 12.0 0.00 0.00 0.00 56 1007.6
20260903212059 89 207 4.0 14.0 0.00 0.00 0.00 57 1007.7
20260903211611 89 137 4.0 14.0 0.00 0.00 0.00 56 1007.6
20260903211058 89 214 5.0 12.0 0.00 0.00 0.00 56 1007.6
20260903210555 89 238 4.0 12.0 0.00 0.00 0.00 55 1007.6
20260903205557 89 175 5.0 11.0 0.00 0.00 0.00 55 1007.5
20260903205057 89 180 5.0 10.0 0.00 0.00 0.00 55 1007.4
20260903204602 89 277 2.0 10.0 0.00 0.00 0.00 56 1007.4
20260903204057 89 191 2.0 10.0 0.00 0.00 0.00 56 1007.3
20260903203556 89 148 4.0 10.0 0.00 0.00 0.00 56 1007.1
20260903203101 89 111 2.0 10.0 0.00 0.00 0.00 55 1007.2
20260903202557 89 111 5.0 12.0 0.00 0.00 0.00 55 1007.3
20260903202058 89 184 4.0 12.0 0.00 0.00 0.00 55 1007.3
20260903201604 89 206 2.0 10.0 0.00 0.00 0.00 56 1007.4
20260903201057 90 141 4.0 10.0 0.00 0.00 0.00 55 1007.5
20260903200555 90 250 3.0 10.0 0.00 0.00 0.00 55 1007.6
20260903200059 90 132 4.0 11.0 0.00 0.00 0.00 57 1007.8
20260903195555 89 225 3.0 11.0 0.00 0.00 0.00 55 1007.9
20260903195056 89 240 5.0 11.0 0.00 0.00 0.00 55 1007.9
20260903194557 89 180 2.0 10.0 0.00 0.00 0.00 55 1007.9
20260903194056 89 143 4.0 10.0 0.00 0.00 0.00 55 1007.8
20260903193557 89 146 3.0 10.0 0.00 0.00 0.00 58 1007.8
20260903193107 89 207 3.0 9.0 0.00 0.00 0.00 57 1008.0
20260903192557 89 143 3.0 10.0 0.00 0.00 0.00 59 1008.1
20260903192056 89 202 4.0 11.0 0.00 0.00 0.00 58 1008.1
20260903191559 88 137 5.0 13.0 0.00 0.00 0.00 56 1008.0
20260903191059 89 169 6.0 17.0 0.00 0.00 0.00 56 1008.2
20260903190558 89 202 6.0 18.0 0.00 0.00 0.00 57 1008.3
20260903190106 89 186 6.0 18.0 0.00 0.00 0.00 56 1008.2
20260903185558 89 203 5.0 14.0 0.00 0.00 0.00 56 1008.3
20260903185056 89 111 4.0 12.0 0.00 0.00 0.00 55 1008.2
20260903184603 89 126 4.0 16.0 0.00 0.00 0.00 56 1008.1
20260903184057 89 184 5.0 16.0 0.00 0.00 0.00 57 1008.0
20260903183558 89 215 4.0 12.0 0.00 0.00 0.00 56 1008.2
20260903183108 89 175 2.0 12.0 0.00 0.00 0.00 59 1008.1
20260903182558 88 205 3.0 12.0 0.00 0.00 0.00 58 1008.0
20260903182057 88 189 2.0 8.0 0.00 0.00 0.00 59 1008.0
20260903181601 87 181 3.0 8.0 0.00 0.00 0.00 59 1008.0
20260903181058 87 130 1.0 6.0 0.00 0.00 0.00 58 1007.9
20260903180556 87 144 1.0 6.0 0.00 0.00 0.00 57 1008.1
20260903180101 88 104 1.0 6.0 0.00 0.00 0.00 56 1008.1
20260903175558 88 0 1.0 7.0 0.00 0.00 0.00 55 1007.9
20260903175057 88 127 1.0 8.0 0.00 0.00 0.00 58 1007.8
20260903174611 88 108 2.0 8.0 0.00 0.00 0.00 57 1007.9
20260903174055 87 117 2.0 6.0 0.00 0.00 0.00 60 1007.9
20260903173556 86 113 2.0 8.0 0.00 0.00 0.00 60 1008.0
20260903173107 85 124 3.0 10.0 0.00 0.00 0.00 62 1008.0
20260903172557 85 85 2.0 11.0 0.00 0.00 0.00 61 1007.8
20260903172057 84 165 4.0 11.0 0.00 0.00 0.00 63 1008.4
20260903171604 84 137 3.0 8.0 0.00 0.00 0.00 63 1008.6
20260903171056 83 192 1.0 6.0 0.00 0.00 0.00 66 1008.7
20260903170600 82 105 2.0 6.0 0.00 0.00 0.00 66 1008.6
20260903170106 82 0 1.0 8.0 0.00 0.00 0.00 65 1008.9
20260903165557 82 209 3.0 8.0 0.00 0.00 0.00 64 1008.8
20260903165057 83 162 3.0 8.0 0.00 0.00 0.00 64 1008.8
20260903164607 83 200 2.0 9.0 0.00 0.00 0.00 63 1009.0
20260903164057 83 81 3.0 9.0 0.00 0.00 0.00 63 1008.9
20260903163557 83 175 2.0 7.0 0.00 0.00 0.00 63 1009.0
20260903163106 83 156 3.0 8.0 0.00 0.00 0.00 64 1009.1
20260903162559 83 246 2.0 10.0 0.00 0.00 0.00 63 1009.0
20260903162057 83 171 4.0 10.0 0.00 0.00 0.00 63 1008.8
20260903161602 83 204 3.0 10.0 0.00 0.00 0.00 65 1008.9
20260903161059 82 217 3.0 9.0 0.00 0.00 0.00 64 1009.1
20260903160556 82 207 2.0 9.0 0.00 0.00 0.00 65 1009.0